User: anonymous   Login
Location: Omaha
(41.2590°N, 95.9380°W)
Time: 08:40:28
(UTC-06:00)
Language:

Tiangong 2 - Orbit

View from above orbital plane
View from above orbital plane
View from above satellite
View from above satellite

Ground track
Ground track

The orbit data is extracted from the following two-line orbital elements,

1 41765U 16057A   18016.90336058  .00004256  00000-0  55495-4 0  9991
2 41765  42.7816 164.4512 0004653 286.3662 212.5322 15.60126500 76340
Epoch (UTC): 16 January 2018 21:40:50
Eccentricity: 0.0004653
inclination: 42.7816°
perigee height: 384 km
apogee height: 390 km
right ascension of ascending node: 164.4512°
argument of perigee: 286.3662°
revolutions per day: 15.60126500
mean anomaly at epoch: 212.5322°
orbit number at epoch: 7634

The dashed part of the orbit path shows where the satellite is in the earth's shadow,  

DLR